Regional Weather Roundup
Issued by NWS Little Rock, AR

Home | Current Version | Previous Version | Graphics & Text | Print | Product List | Glossary On
Versions: 1 2 3 4 5 6 7 8 9 10 11 12 13 14 15 16 17 18 19 20 21 22 23 24 25 26 27 28 29 30 31 32 33 34 35 36 37 38 39 40 41 42 43 44 45 46 47 48 49 50
375
ASUS44 KLZK 220805
RWRLZK

WEATHER ROUNDUP FOR ARKANSAS
NATIONAL WEATHER SERVICE LITTLE ROCK AR
300 AM CDT WED MAR 22 2017

NOTE: "FAIR" INDICATES FEW OR NO CLOUDS BELOW 12,000 FEET WITH NO
SIGNIFICANT WEATHER AND/OR OBSTRUCTIONS TO VISIBILITY.

ARZ001-003-010-029-220900-
NORTHWEST ARKANSAS

CITY           SKY/WX    TMP DP  RH WIND       PRES   REMARKS
FAYETTEVILLE   CLOUDY    51  42  71 NE9G21    30.20R THUNDER
FORT SMITH     CLOUDY    60  49  66 E20G25    30.13R
HARRISON       LGT RAIN  45  42  89 E10G21    30.24F
BENTONVILLE    CLOUDY    46  43  87 E14G20    30.23R
ROGERS         LGT RAIN  47  43  86 E16       30.23S
SILOAM SPGS    CLOUDY    52  39  62 E13G22    30.20R THUNDER
HIGHFILL       CLOUDY    48  44  86 NE21G28   30.22R
$$

ARZ004-005-016-220900-
NORTH CENTRAL ARKANSAS

CITY           SKY/WX    TMP DP  RH WIND       PRES   REMARKS
BATESVILLE     CLOUDY    50  43  76 NE13      30.25S
FLIPPIN        CLOUDY    46  39  76 NE7       30.27R
MTN HOME       LGT RAIN  46  43  89 E3        30.28R
$$

ARZ040-041-220900-
WEST CENTRAL ARKANSAS

CITY           SKY/WX    TMP DP  RH WIND       PRES   REMARKS
MENA           MOCLDY    61  59  94 E10       30.14F
MOUNT IDA      PTCLDY    59  52  77 VRB3      30.14R
$$

ARZ009-017-025-026-028-220900-
NORTHEAST ARKANSAS

CITY           SKY/WX    TMP DP  RH WIND       PRES   REMARKS
CORNING        LGT RAIN  48  48 100 NW7       30.28R
JONESBORO      TSTM      47  44  90 NE10      30.26R
NEWPORT        LGT RAIN  49  46  90 N20         N/A
WALNUT RIDGE   CLOUDY    48  45  87 NW7       30.29R
BLYTHEVILLE    LGT RAIN  49  47  93 N8        30.25R
$$

ARZ022-023-033-042-044-220900-
CENTRAL ARKANSAS

CITY           SKY/WX    TMP DP  RH WIND       PRES   REMARKS
LITTLE ROCK    CLOUDY    55  44  66 NE18G25   30.19R
N LITTLE ROCK    N/A     54  43  66 NE10G20   30.19R
JACKSONVILLE   CLEAR     56  43  62 NE9       30.19R
CONWAY           N/A     55  43  62 NE9       30.19R
SEARCY         CLOUDY    54  45  71 NE16      30.22R
HOT SPRINGS    PTCLDY    57  46  66 E12       30.17R
RUSSELLVILLE   CLOUDY    57  40  52 E13       30.19R
CLINTON        CLOUDY    55  41  58 VRB5G13   30.24R
$$

ARZ036-220900-
EAST ARKANSAS

CITY           SKY/WX    TMP DP  RH WIND       PRES   REMARKS
WEST MEMPHIS   CLOUDY    54  46  74 NE15G22   30.18R
$$

ARZ050-053-066-070-073-220900-
SOUTHWEST ARKANSAS

CITY           SKY/WX    TMP DP  RH WIND       PRES   REMARKS
ARKADELPHIA    FAIR      57  51  80 NE7       30.16R
CAMDEN         CLEAR     57  50  77 NE8       30.13F
TEXARKANA      CLEAR     59  53  80 CALM      30.08S
EL DORADO      CLEAR     59  54  83 NE9       30.12R
DE QUEEN       PTCLDY    55  55 100 E5        30.07R
$$

ARZ056-057-069-220900-
SOUTHEAST ARKANSAS

CITY           SKY/WX    TMP DP  RH WIND       PRES   REMARKS
PINE BLUFF     CLEAR     55  49  80 NE13      30.15F
STUTTGART      CLEAR     55  39  54 NE16G23   30.17F
MONTICELLO     CLEAR     57  52  83 VRB6      30.14R

$$






USA.gov is the U.S. government's official web portal to all federal, state and local government web resources and services.